CDT,Max TemperatureF,Mean TemperatureF,Min TemperatureF,Max Dew PointF,MeanDew PointF,Min DewpointF,Max Humidity, Mean Humidity, Min Humidity, Max Sea Level PressureIn, Mean Sea Level PressureIn, Min Sea Level PressureIn, Max VisibilityMiles, Mean VisibilityMiles, Min VisibilityMiles, Max Wind SpeedMPH, Mean Wind SpeedMPH, Max Gust SpeedMPH,PrecipitationIn, CloudCover, Events, WindDirDegrees
2013-7-1,69,60,51,54,47,41,88,62,43,30.26,30.22,30.15,10,10,10,15,7,20,0.00,0,,67
2013-7-2,73,60,46,43,38,32,76,46,23,30.21,30.17,30.11,10,10,7,9,2,,0.00,1,,108
2013-7-3,80,62,44,52,44,36,93,53,23,30.11,30.05,29.98,10,10,10,7,1,,0.00,0,,128
2013-7-4,84,66,48,57,53,45,93,60,37,29.98,29.92,29.87,10,10,10,14,3,21,0.00,0,,173
2013-7-5,84,73,62,61,57,55,82,55,37,29.89,29.85,29.79,10,10,10,18,6,25,0.00,1,,182
2013-7-6,77,72,66,70,64,61,94,76,61,29.91,29.87,29.84,10,9,1,13,6,16,0.08,2,Rain-Thunderstorm,188
2013-7-7,68,60,53,66,60,52,100,92,82,29.99,29.90,29.84,10,3,0,14,7,20,0.01,8,Fog-Rain-Thunderstorm,89
2013-7-8,73,63,53,64,57,52,100,87,69,30.05,30.01,29.96,10,6,0,7,3,,0.00,5,Fog-Thunderstorm,100
2013-7-9,73,63,53,66,58,52,100,91,68,30.01,29.88,29.80,10,5,0,17,4,25,0.00,6,Fog-Rain,94
2013-7-10,75,65,55,55,52,46,94,63,36,30.06,29.99,29.91,10,10,7,18,10,24,0.00,3,Rain,302
2013-7-11,80,65,50,57,53,46,94,62,34,30.12,30.06,29.99,10,10,5,13,4,17,0.00,0,,199
2013-7-12,84,73,62,61,58,55,82,58,45,30.01,29.95,29.90,10,10,10,18,7,26,0.00,1,,169
2013-7-13,75,70,66,66,64,57,94,82,53,30.09,30.02,29.93,10,9,2,13,6,18,0.00,7,Rain-Thunderstorm,159
2013-7-14,73,70,68,66,63,61,94,79,65,30.23,30.15,30.08,10,9,5,13,5,24,0.00,6,Rain-Thunderstorm,188
2013-7-15,80,72,64,70,66,63,94,84,65,30.27,30.23,30.20,10,7,0,10,3,,0.00,4,Fog-Rain,101
2013-7-16,89,74,60,72,64,61,100,70,38,30.21,30.18,30.15,10,7,0,16,5,24,0.00,3,Fog,208
2013-7-17,89,79,69,66,64,63,83,60,40,30.22,30.18,30.12,10,10,10,17,7,22,0.00,2,Thunderstorm,231
2013-7-18,91,78,66,70,66,63,94,65,38,30.12,29.89,29.67,10,9,2,21,6,31,0.00,2,Rain-Thunderstorm,213
2013-7-19,80,72,64,70,58,45,94,60,30,29.86,29.77,29.66,10,10,10,18,10,25,0.00,2,Thunderstorm,279
2013-7-20,68,60,53,55,47,32,82,60,38,30.02,29.97,29.86,10,10,10,13,5,,0.00,2,,67
2013-7-21,69,60,50,55,49,41,94,71,48,30.02,29.95,29.84,10,10,10,14,6,18,0.00,2,,96
2013-7-22,82,68,55,66,56,48,94,71,39,29.84,29.73,29.65,10,10,5,21,8,29,0.00,6,Rain-Thunderstorm,249
2013-7-23,71,61,51,52,48,45,94,65,38,30.04,29.99,29.85,10,10,10,14,6,21,0.00,1,,337
2013-7-24,73,58,44,55,50,43,94,69,46,30.07,30.02,29.95,10,10,10,10,2,,0.00,3,,209
2013-7-25,78,68,57,63,57,52,100,76,41,29.95,29.92,29.87,10,9,0,23,6,31,0.69,4,Fog-Rain-Thunderstorm,229
2013-7-26,60,54,48,57,51,43,100,86,63,30.11,29.98,29.87,10,7,0,20,6,28,0.03,8,Fog-Rain-Thunderstorm,332
2013-7-27,55,50,46,50,46,43,93,84,72,30.08,29.97,29.91,10,10,5,17,9,29,0.03,7,Rain,313
2013-7-28,69,58,48,52,48,45,94,75,46,30.06,29.99,29.95,10,10,10,15,9,20,0.00,6,,324
2013-7-29,73,58,42,57,49,41,100,69,38,30.13,30.10,30.05,10,10,7,8,2,,0.00,1,,230
2013-7-30,69,64,59,61,58,54,94,81,68,30.12,30.08,30.05,10,10,7,8,3,,0.00,6,Rain,200
2013-7-31,75,66,57,61,53,43,94,65,31,30.05,30.00,29.97,10,10,7,18,8,26,0.02,2,Rain,273